Location: Patterson (historical)
(35.1418°N, 90.5529°W)
Time: 18:04:54
(UTC+00:00)

Cosmos 2084 Rocket - Pass Details

Date: 11 December 2025
Orbit: 544 x 569 km, 62.8° (Epoch: 20 January)

Event Time Altitude Azimuth Distance (km) Brightness Sun altitude
Rises 23:45:46 0° 330° (NNW) 2,771 7.0 -11.1°
Reaches altitude 10° 23:48:00 10° 332° (NNW) 1,872 6.1 -11.5°
Maximum altitude 23:52:13 71° 57° (ENE) 603 3.3 -12.3°
Drops below altitude 10° 23:56:25 10° 142° (SE) 1,862 5.8 -13.2°
Sets 23:58:38 0° 144° (SE) 2,755 6.7 -13.6°
